星链-1300 (STARLINK-1300 )

导读

STARLINK-1300是美国SpaceX公司星链星座项目中的卫星,于2020年3月18日发射升空,属于Starlink首批组网卫星,星链旨在为全球偏远地区提供低成本高速卫星互联网服务。作为近地轨道星座的组成部分,它为后续星链全球服务部署积累了关键运行经验,但也引发了天文观测与太空轨道拥挤的争议。

Basic Information
目录编号:
45374
目录名称:
STARLINK-1300
国际标识:
2020-019Q
轨道中心:
EARTH
卫星名称:
星链-1300
卫星全名:
星链-1300 (STARLINK-1300 )
卫星状态:
在轨 (已飞行2283 天)
发射日期:
2020-03-18 UTC
国别 :
美国 (US)
星等 :
--
Orbit Information
数据来源 国际轨道数据 AOE轨道数据
星历时间 2026-06-18T09:45:28+0800
21小时前
查看轨道信息
2026-06-17T23:00:00+0800
1天前
查看轨道信息
半长轴 6835.047km 6835.082km
偏心率 0.0004041 0.000382
轨道倾角 53.158° 53.159°
近地点辐角 119.197° 116.968°
升交点赤经 57.507° 59.611°
平近点角 240.944° 282.666°
近地点 454.147km 454.333km
远地点 459.673km 459.557km
周期 93.729分钟 93.729分钟
每日圈数 15.363514 15.363397
Detailed Information
固有亮度:
5
最大亮度:
2.5
卫星平台:
Starlink V1.0
覆盖范围:
全球
运营商:
太空探索技术公司
运营商所在国:
美国
制造商(研发单位):
太空探索技术公司
制造商所在国:
美国
使用方式:
暂无
Satellite Introduction
星链(Starlink)计划是由太空探索技术公司(SpaceX)提出的一个巨型低轨卫星互联网星座项目,计划在2019年至2024年间在太空搭建由约1.2万颗卫星组成的“星链”网络,其中1584颗将部署在地球上空550千米处的近地轨道,并从2020年开始工作。该卫星仍在工作。
2D Orbit Map
3D Orbit Map
Orbit Altitude Analysis Chart
Orbit Inclination Analysis Chart
Orbit Comprehensive Analysis Chart
View Comprehensive Chart